Location: Ay?beleni
(36.6500°N, 30.3000°E)
Time: 04:08:22
(UTC+00:00)

MOS 1-B Rocket - Pass Details

Date: 16 October 2021
Orbit: 890 x 1605 km, 99.0° (Epoch: 08 December)

Event Time Altitude Azimuth Distance (km) Brightness Sun altitude
Rises 15:59:40 0° 16° (NNE) 4,123 7.1 -8.5°
Reaches altitude 10° 16:02:29 10° 19° (NNE) 3,053 6.4 -9.1°
Maximum altitude 16:09:15 66° 101° (E) 1,112 4.1 -10.4°
Drops below altitude 10° 16:15:06 10° 183° (S) 2,652 6.4 -11.6°
Sets 16:17:25 0° 186° (S) 3,546 7.1 -12.1°
